Location: Corralito
(10.2667°N, 66.9500°W)
Time: 16:38:56
(UTC+00:00)

Spot 4 Rocket - Pass Details

Date: 02 May 2024
Orbit: 772 x 777 km, 98.8° (Epoch: 22 May)

Event Time Altitude Azimuth Distance (km) Brightness Sun altitude
Rises 08:59:08 0° 42° (NE) 3,241 8.3 -17.3°
Reaches altitude 10° 09:02:18 10° 62° (ENE) 2,313 7.8 -16.6°
Maximum altitude 09:05:25 16° 101° (E) 1,908 6.9 -15.9°
Drops below altitude 10° 09:08:32 10° 139° (SE) 2,312 6.8 -15.2°
Sets 09:11:41 0° 159° (SSE) 3,238 7.3 -14.4°
